www.pogodaiklimat.ru

Погода и климат >> Архив погоды >> Индия >> Bhuj-Rudramata


ПОГОДА в Bhuj-Rudramata

  • Прогноз погоды в Bhuj-Rudramata
  • Монитор погоды в Bhuj-Rudramata
  • Климат города

АРХИВ ПОГОДЫ в Bhuj-Rudramata

Время (UTC), дата Ветер
(напр.,м/с)
 
Видим.   Явления Облачность Т
(С)
Тd
(С)
f
(%)
Тe
(С)
Тes
(С)
Комфортность P
(гПа)
Po
(гПа)
Тmin
(С)
Tmax
(С)
R
(мм)
R24
(мм)
S
(см)
06 17.06 ЮЗ 3 4000 м 6/6 600 м
[Sc]
+34.0 +24.0 56 +46 +52 опасность
перегрева
1001.9 1002.0
09 17.06 ЮЗ 3 4000 м 8/8 600 м
[Cu Sc]
+35.0 +22.9 50 +45 +48 опасность
перегрева
1000.4 1000.0
12 17.06 ЮЗ 3 4000 м 5/5 600 м
[Sc]
+34.6 +23.4 52 +45 +47 опасность
перегрева
999.0 999.0 +36.2
15 17.06 ЮЗ 2 4000 м 5/5 600 м
[Sc]
+31.4 +23.6 63 +42 +42 опасность
перегрева
999.8 1000.0
18 17.06 З 2 4000 м 3/3 600 м
[Sc]
+29.6 +25.4 78 +43 +43 опасность
перегрева
1000.6 1001.0
21 17.06 З 2 4000 м 5/5 540 м
[Frnb]
+28.8 +25.1 80 +42 +42 опасность
перегрева
1000.0 1000.0
00 18.06 ЮЗ 1 4000 м 6/6 450 м
[Frnb]
+28.0 +24.6 82 +40 +40 очень
душно
999.9 1000.0
03 18.06 ЮЗ 2 4000 м 5/5 600 м
[Sc]
+30.0 +24.9 74 +43 +46 опасность
перегрева
1001.0 1001.0 +24.9
06 18.06 ЮЗ 3 4000 м 5/5 600 м
[Sc]
+33.6 +23.9 57 +45 +53 опасность
перегрева
1001.2 1001.0
09 18.06 ЮЗ 2 4000 м 5/5 600 м
[Sc]
+36.8 +22.3 43 +45 +55 опасность
перегрева
999.9 1000.0
12 18.06 ЮЗ 2 4000 м 4/4 600 м
[Sc]
+35.6 +21.9 45 +44 +46 опасность
перегрева
998.8 999.0 +37.4
15 18.06 штиль 0 4000 м {дождь} 8/4 600 м
[Sc Ac trans]
+27.4 +24.5 84 +39 +39 очень
душно
1001.4 983.9 14
18 18.06 ЮЗ 2 4000 м 3/3 600 м
[Sc]
+29.0 +25.0 79 +42 +42 опасность
перегрева
1002.8 989.9
21 18.06 ЮЗ 2 4000 м 5/5 600 м
[Sc]
+28.4 +25.0 82 +41 +41 опасность
перегрева
1001.3 1001.0
00 19.06 ЮЗ 2 4000 м 5/5 600 м
[Sc]
+27.6 +24.7 84 +39 +39 очень
душно
1001.3 1001.0
03 19.06 ЮЗ 2 4000 м 3/3 600 м
[Sc]
+29.8 +25.6 78 +44 +48 опасность
перегрева
1002.0 1002.0 +27.6
06 19.06 ЮЗ 2 4000 м ясно +35.4 +24.0 52 +47 +69 опасность
перегрева
1002.0 1002.0
09 19.06 З 1 2000 м пыль ясно +39.8 +21.2 34 +46 +68 опасность
перегрева
1000.5 1001.0
12 19.06 З 2 2000 м пыль ясно +37.8 +22.6 42 +47 +52 опасность
перегрева
999.5 1000.0 +40.2
15 19.06 ЮЗ 3 4000 м ясно +31.4 +24.3 66 +44 +44 опасность
перегрева
1000.6 1001.0
18 19.06 ЮЗ 2 4000 м ясно +29.2 +24.6 76 +41 +41 опасность
перегрева
1002.0 1002.0
21 19.06 ЮЗ 2 4000 м 4/4 600 м
[Sc]
+28.4 +24.1 78 +40 +40 очень
душно
1001.0 1001.0
00 20.06 ЮЗ 2 4000 м 3/3 600 м
[Sc]
+28.2 +24.2 79 +39 +39 очень
душно
1001.3 1001.0
03 20.06 З 2 2000 м пыль 5/5 540 м
[Frnb]
+30.0 +24.3 72 +42 +45 опасность
перегрева
1002.6 1003.0 +27.7
06 20.06 З 2 2000 м пыль 4/4 600 м
[Sc]
+34.0 +24.0 56 +46 +58 опасность
перегрева
1003.0 1003.0
09 20.06 ЮЗ 3 4000 м ясно +37.0 +22.9 44 +46 +62 опасность
перегрева
1000.6 1001.0
12 20.06 ЮЗ 3 4000 м ясно +35.2 +23.5 51 +46 +50 опасность
перегрева
999.5 1000.0 +37.6
15 20.06 З 2 4000 м 1/1 600 м
[Sc]
+31.0 +23.8 66 +43 +43 опасность
перегрева
1000.8 1001.0
18 20.06 З 2 4000 м 1/1 600 м
[Sc]
+29.4 +23.9 72 +40 +40 очень
душно
1002.5 1003.0
21 20.06 ЮЗ 2 4000 м ясно +28.6 +24.3 78 +40 +40 очень
душно
1001.2 1001.0
00 21.06 4000 м н/о +28.4 +24.7 80 +40 +40 очень
душно
1002.0 1002.0
03 21.06 ЮЗ 2 4000 м 5/5 600 м
[Sc]
+29.6 +25.1 77 +43 +46 опасность
перегрева
1002.2 1002.0 +27.6
06 21.06 ЮЗ 1 4000 м 3/3 600 м
[Sc]
+34.0 +23.4 54 +45 +61 опасность
перегрева
1002.2 1002.0
09 21.06 ЮЗ 2 4000 м 5/5 600 м
[Sc]
+37.6 +23.7 45 +48 +58 опасность
перегрева
1000.1 1000.0
12 21.06 ЮЗ 2 4000 м 5/5 600 м
[Sc]
+35.6 +23.9 51 +47 +49 опасность
перегрева
998.9 999.0 +38.0
15 21.06 ЮЗ 3 4000 м ясно +30.8 +23.9 67 +42 +42 опасность
перегрева
999.7 1000.0
18 21.06 ЮЗ 2 4000 м ясно +29.0 +24.7 78 +41 +41 опасность
перегрева
1001.3 1001.0
21 21.06 ЮЗ 2 4000 м ясно +28.6 +24.9 80 +41 +41 опасность
перегрева
1000.6 1001.0
00 22.06 ЮЗ 2 4000 м ясно +28.0 +24.2 80 +39 +39 очень
душно
1001.2 1001.0
03 22.06 ЮЗ 1 4000 м 4/4 600 м
[Sc]
+30.0 +26.1 80 +45 +49 опасность
перегрева
1002.0 1002.0 +27.8
06 22.06 ЮЗ 1 4000 м 4/4 600 м
[Sc As op]
+35.0 +23.6 52 +46 +60 опасность
перегрева
1001.6 1002.0
09 22.06 ЮЗ 2 4000 м 4/4 600 м
[Sc]
+37.0 +23.3 46 +47 +60 опасность
перегрева
999.8 1000.0
12 22.06 ЮЗ 2 4000 м 4/4 600 м
[Sc]
+35.8 +23.2 48 +46 +49 опасность
перегрева
998.3 998.0 +37.4
15 22.06 ЮЗ 2 4000 м ясно +31.0 +24.1 67 +29 +29 жарко 999.5 1000.0
18 22.06 ЮЗ 2 4000 м ясно +29.6 +25.1 77 +43 +43 опасность
перегрева
1000.9 1001.0
21 22.06 ЮЗ 2 4000 м ясно +29.0 +25.3 80 +42 +42 опасность
перегрева
1000.3 1000.0
00 23.06 ЮЗ 2 4000 м 3/3 600 м
[Sc]
+28.4 +25.6 85 +42 +42 опасность
перегрева
1000.9 1001.0
03 23.06 ЮЗ 1 4000 м 5/5 600 м
[Sc]
+29.6 +25.4 78 +43 +47 опасность
перегрева
1001.2 1001.0 +27.6
06 23.06 ЮЗ 2 4000 м 5/5 600 м
[Sc]
+34.4 +23.8 54 +46 +57 опасность
перегрева
1001.5 1002.0
09 23.06 СЗ 1 4000 м 5/5 600 м
[Sc]
+37.2 +23.5 46 +48 +59 опасность
перегрева
999.9 1000.0
12 23.06 ЮЗ 2 4000 м 4/4 600 м
[Sc]
+36.0 +23.4 48 +46 +49 опасность
перегрева
998.6 999.0 +37.6
15 23.06 ЮЗ 2 4000 м 4/4 600 м
[Sc]
+31.2 +24.0 66 +43 +43 опасность
перегрева
999.6 1000.0
18 23.06 ЮЗ 1 4000 м 4/4 600 м
[Sc]
+29.6 +24.8 75 +42 +42 опасность
перегрева
1000.8 1001.0
21 23.06 ЮЗ 1 4000 м 4/4 600 м
[Sc]
+29.2 +24.9 78 +42 +42 опасность
перегрева
1000.1 1000.0
00 24.06 ЮЗ 2 4000 м 3/3 600 м
[Sc]
+28.6 +25.2 82 +42 +42 опасность
перегрева
1000.2 1000.0

 

Местоположение метеостанции Bhuj-Rudramata (Gujarat, Индия): широта 23.25 долгота 69.67 высота над уровнем моря 80 м.

В архиве по умолчанию представлена погода в Bhuj-Rudramata за последнюю неделю. Архивные данные за месяц целиком и за предыдущие месяцы, начиная с января 2011 года, Вы можете получить, выбрав интересующий диапазон дат из раскрывающегося списка и нажав кнопку "Ввод!".


*Определитесь, кто Вы:
робот инопланетянин человек

Внимание! Время в таблицах - всемирное. Для получения местного времени необходимо прибавить поправку, которая в Bhuj-Rudramata равна 5.5 ч.

Смотрите также архив погоды в соседних городах и на ближайших метеорологических станциях:

Погода в Kandla (Gujarat, Индия) (47 км)
Погода в New Kandla (Gujarat, Индия) (63 км)
Погода в Mandvi (Gujarat, Индия) (63 км)
Погода в Naliya (Gujarat, Индия) (84 км)
Погода в Okha (Gujarat, Индия) (103 км)
Погода в Dwarka (Gujarat, Индия) (115 км)
Погода в Rajkot (Gujarat, Индия) (155 км)
Погода в Badin (Пакистан) (172 км)
Погода в Porbandar (Gujarat, Индия) (178 км)
Погода в Surendranagar (Gujarat, Индия) (206 км)

Пояснения к столбцам:

Ветер - указаны скорость ветра в м/с - средняя за 10 мин, порывы в срок и между сроками (в фигурных скобках) и направление, откуда дует ветер: С - северный, СВ - северо-восточный, В - восточный, ЮВ - юго-восточный, Ю - южный, ЮЗ - юго-западный, З - западный, СЗ - северо-западный.
Видимость - горизонтальная дальность видимости в метрах или километрах. При видимости от 1 до 10 км при отсутствии осадков обычно наблюдается дымка, при ухудшении видимости до 1 км и менее - туман. В сухую погоду видимость может ухудшаться дымом, пылью или мглою.
Явления - указаны атмосферные явления, наблюдавшиеся в срок или в последний час перед сроком; фигурными скобками обозначены явления, наблюдавшиеся между сроками (за 1-3 часа до срока); квадратными скобками обозначены град или гололедные отложения с указанием их диаметра в мм.
Облачность - указаны через наклонную черту общая и нижняя облачность в баллах и высота нижней границы облаков в метрах; квадратными скобками обозначены формы облаков: Ci - перистые, Cs - перисто-слоистые, Cc - перисто-кучевые, Ac - высококучевые, As - высокослоистые, Sc - слоисто-кучевые, Ns - слоисто-дождевые, Cu - кучевые, Cb - кучево-дождевые. Подробнее классификацию облаков см. в Атласе облаков (PDF).
T - Температура воздуха - температура, измеренная на высоте 2 м над землей.
Td - Температура точки росы - температура, при понижении до которой содержащийся в воздухе водяной пар достигнет насыщения.
f - Относительная влажность воздуха - влажноcть воздуха, измеренная на высоте 2 м над землей.
Te - Эффективная температура - температура, которую ощущает одетый по сезону человек в тени. Характеристика душности погоды. При расчете учитывается влияние влажности воздуха и скорости ветра на теплоощущения человека.
Tes - Эффективная температура на солнце - температура, которую ощущает человек, с поправкой на солнечный нагрев. Характеристика знойности погоды. Зависит от высоты солнца над горизонтом, облачности и скорости ветра. Ночью, в пасмурную погоду, а также при ветре 12 м/с и более поправка равна нулю.
P - Атмосферное давление - приведенное к уровню моря атмосферное давление.
Po - Атмосферное давление - измеренное на уровне метеостанции атмосферное давление.
Tmin - Минимальная температура - минимум температуры воздуха на высоте 2 м над землей.
Tmax - Максимальная температура - максимум температуры воздуха на высоте 2 м над землей.
R - Количество осадков - Количество выпавших осадков за период времени, мм. При наведении курсора мыши на число - период времени, за который выпало указанное количество осадков.
R24 - Количество осадков - Количество выпавших осадков за 24 часа, мм.
S - Снежный покров - Высота снежного покрова, см. При наведении курсора мыши на число - состояние снежного покрова и степень покрытия местности в баллах.